Regional Weather Roundup
Issued by NWS

Home | Current Version | Previous Version | Graphics & Text | Print | Product List | Glossary On
Versions: 1 2 3 4 5 6 7 8 9 10 11 12 13 14 15 16 17 18 19 20 21 22 23 24 25 26 27 28 29 30 31 32 33 34 35 36 37 38 39 40 41 42 43 44 45 46 47 48 49 50
000
ASUS43 KFSD 271202
RWRSD

WEATHER ROUNDUP FOR SOUTH DAKOTA
NATIONAL WEATHER SERVICE SIOUX FALLS SD
700 AM CDT SUN MAY 27 2018

NOTE: "FAIR" INDICATES FEW OR NO CLOUDS BELOW 12,000 FEET WITH NO
SIGNIFICANT WEATHER AND/OR OBSTRUCTIONS TO VISIBILITY.


SDZ001>005-009-010-012>017-271300-
NORTHWEST AND NORTH CENTRAL SOUTH DAKOTA

CITY           SKY/WX    TMP DP  RH WIND       PRES   REMARKS
BUFFALO          N/A     63  52  67 NE16      29.76F
FAITH            N/A     65  62  90 NE15      29.75R
MOBRIDGE       CLOUDY    74  58  57 CALM      29.73R
$$

SDZ012>016-024>037-041>051-057-063-072>074-271300-
SOUTHWEST AND SOUTH CENTRAL SOUTH DAKOTA

CITY           SKY/WX    TMP DP  RH WIND       PRES   REMARKS
RAPID CTY ARPT MOCLDY    68  59  73 NW22G36   29.82R
PIERRE         CLOUDY    70  58  65 SW3       29.71R
CUSTER         MOCLDY    64  53  67 N17G28    29.90F
ELLSWORTH AFB  PTCLDY    67  60  77 N24G31    29.81R
PHILIP         CLOUDY    61  57  87 W3        29.72R
PINE RIDGE     CLOUDY    73  52  47 S17G25    29.76R
SPEARFISH      CLOUDY    64  57  77 W8        29.94R
WINNER         FAIR      74  54  49 S15G23    29.74R
$$

SDZ004>011-016>023-039-040-271300-
NORTHEAST SOUTH DAKOTA

CITY           SKY/WX    TMP DP  RH WIND       PRES   REMARKS
ABERDEEN       MOCLDY    70  56  61 NE7       29.76R
WATERTOWN      CLOUDY    68  53  58 SE8       29.79R
BROOKINGS      CLOUDY    67  53  61 SE10      29.80R
SISSETON         N/A     66  62  87 NE16      29.78F
$$

SDZ017-020-022-023-036>040-048>070-271300-
SOUTHEAST SOUTH DAKOTA

CITY           SKY/WX    TMP DP  RH WIND       PRES   REMARKS
SIOUX FALLS    CLOUDY    67  56  67 CALM      29.79R
HURON          CLOUDY    71  57  61 S9        29.73R
CHAMBERLAIN    PTCLDY    70  60  71 S6        29.75R
MITCHELL       MOCLDY    71  58  63 S10       29.75S
YANKTON        CLEAR     67  58  72 E5        29.79R
$$

ABBREVIATIONS USED IN REMARKS
   TC - TEMPERATURE IN CELSIUS
  WCI - WIND CHILL INDEX
   HX - HEAT INDEX
  VSB - VISIBILITY




USA.gov is the U.S. government's official web portal to all federal, state and local government web resources and services.